Time,TemperatureF,DewpointF,PressureIn,WindDirection,WindDirectionDegrees,WindSpeedMPH,WindSpeedGustMPH,Humidity,HourlyPrecipIn,Conditions,Clouds,dailyrainin,SoftwareType,DateUTC
2013-04-08 00:00:00,60.4,51.0,29.06,NNW,338,0.0,0.0,71,0.00,,---,0.00,VWS V14.01,2013-04-08 04:00:00,
2013-04-08 00:05:00,60.3,50.8,29.06,NNW,338,0.0,0.0,71,0.00,,---,0.00,VWS V14.01,2013-04-08 04:05:00,
2013-04-08 00:10:00,60.1,50.7,29.06,NNW,338,0.0,0.0,71,0.00,,---,0.00,VWS V14.01,2013-04-08 04:10:00,
2013-04-08 00:15:00,59.9,50.5,29.06,NNW,338,0.0,0.0,71,0.00,,---,0.00,VWS V14.01,2013-04-08 04:15:00,
2013-04-08 00:20:00,59.9,50.1,29.06,NNW,338,0.0,0.0,70,0.00,,---,0.00,VWS V14.01,2013-04-08 04:20:00,
2013-04-08 00:25:00,59.5,50.1,29.06,NNW,338,0.0,0.0,71,0.00,,---,0.00,VWS V14.01,2013-04-08 04:25:00,
2013-04-08 00:30:00,59.4,50.3,29.06,NNW,338,0.0,0.0,72,0.00,,---,0.00,VWS V14.01,2013-04-08 04:30:00,
2013-04-08 00:35:00,59.0,50.4,29.06,NNW,338,0.0,0.0,73,0.00,,---,0.00,VWS V14.01,2013-04-08 04:35:00,
2013-04-08 00:40:00,58.8,50.2,29.06,NNW,338,0.0,0.0,73,0.00,,---,0.00,VWS V14.01,2013-04-08 04:40:00,
2013-04-08 00:45:00,58.6,50.0,29.06,NNW,338,0.0,0.0,73,0.00,,---,0.00,VWS V14.01,2013-04-08 04:45:00,
2013-04-08 00:50:00,58.3,50.0,29.06,NNW,338,0.0,0.0,74,0.00,,---,0.00,VWS V14.01,2013-04-08 04:50:00,
2013-04-08 00:55:00,58.5,50.6,29.06,NNW,338,0.0,0.0,75,0.00,,---,0.00,VWS V14.01,2013-04-08 04:55:00,
2013-04-08 01:00:00,58.3,50.0,29.06,NNW,338,0.0,0.0,74,0.00,,---,0.00,VWS V14.01,2013-04-08 05:00:00,
2013-04-08 01:05:00,58.1,50.2,29.06,NNW,338,0.0,0.0,75,0.00,,---,0.00,VWS V14.01,2013-04-08 05:05:00,
2013-04-08 01:10:00,58.1,50.6,29.06,NNW,338,0.0,0.0,76,0.00,,---,0.00,VWS V14.01,2013-04-08 05:10:00,
2013-04-08 01:15:00,57.9,50.4,29.06,NNW,338,0.0,0.0,76,0.00,,---,0.00,VWS V14.01,2013-04-08 05:15:00,
2013-04-08 01:20:00,57.9,50.0,29.06,NNW,338,0.0,0.0,75,0.00,,---,0.00,VWS V14.01,2013-04-08 05:20:00,
2013-04-08 01:25:00,57.9,50.4,29.06,NNW,338,0.0,0.0,76,0.00,,---,0.00,VWS V14.01,2013-04-08 05:25:00,
2013-04-08 01:30:00,57.7,50.2,29.06,NNW,338,0.0,0.0,76,0.00,,---,0.00,VWS V14.01,2013-04-08 05:30:00,
2013-04-08 01:35:00,57.7,50.2,29.06,NNW,338,0.0,0.0,76,0.00,,---,0.00,VWS V14.01,2013-04-08 05:35:00,
2013-04-08 01:40:00,57.7,50.6,29.06,NNW,338,0.0,0.0,77,0.00,,---,0.00,VWS V14.01,2013-04-08 05:40:00,
2013-04-08 01:45:00,57.6,50.4,29.06,NNW,338,0.0,0.0,77,0.00,,---,0.00,VWS V14.01,2013-04-08 05:45:00,
2013-04-08 01:50:00,57.6,50.4,29.03,NNW,338,0.0,0.0,77,0.00,,---,0.00,VWS V14.01,2013-04-08 05:50:00,
2013-04-08 01:55:00,57.6,50.4,29.03,NNW,338,0.0,0.0,77,0.00,,---,0.00,VWS V14.01,2013-04-08 05:55:00,
2013-04-08 02:00:00,57.6,50.4,29.03,NNW,338,0.0,0.0,77,0.00,,---,0.00,VWS V14.01,2013-04-08 06:00:00,
2013-04-08 02:05:00,57.4,50.2,29.03,NNW,338,0.0,0.0,77,0.00,,---,0.00,VWS V14.01,2013-04-08 06:05:00,
2013-04-08 02:10:00,57.2,50.1,29.03,NNW,338,0.0,0.0,77,0.00,,---,0.00,VWS V14.01,2013-04-08 06:10:00,
2013-04-08 02:15:00,57.2,50.1,29.03,NNW,338,0.0,0.0,77,0.00,,---,0.00,VWS V14.01,2013-04-08 06:15:00,
2013-04-08 02:20:00,57.2,50.4,29.03,NNW,338,0.0,0.0,78,0.00,,---,0.00,VWS V14.01,2013-04-08 06:20:00,
2013-04-08 02:25:00,57.0,50.2,29.03,NNW,338,0.0,0.0,78,0.00,,---,0.00,VWS V14.01,2013-04-08 06:25:00,
2013-04-08 02:30:00,57.0,50.2,29.03,NNW,338,0.0,0.0,78,0.00,,---,0.00,VWS V14.01,2013-04-08 06:30:00,
2013-04-08 02:35:00,56.8,50.1,29.03,NNW,338,0.0,0.0,78,0.00,,---,0.00,VWS V14.01,2013-04-08 06:35:00,
2013-04-08 02:40:00,56.8,50.4,29.03,NNW,338,0.0,0.0,79,0.00,,---,0.00,VWS V14.01,2013-04-08 06:40:00,
2013-04-08 02:45:00,56.8,50.7,29.03,NNW,338,0.0,0.0,80,0.00,,---,0.00,VWS V14.01,2013-04-08 06:45:00,
2013-04-08 02:50:00,56.7,50.2,29.03,NNW,338,0.0,0.0,79,0.00,,---,0.00,VWS V14.01,2013-04-08 06:50:00,
2013-04-08 02:55:00,56.5,50.4,29.03,NNW,338,0.0,0.0,80,0.00,,---,0.00,VWS V14.01,2013-04-08 06:55:00,
2013-04-08 03:00:00,56.1,50.4,29.03,NNW,338,0.0,0.0,81,0.00,,---,0.00,VWS V14.01,2013-04-08 07:00:00,
2013-04-08 03:05:00,55.6,49.8,29.03,NNW,338,0.0,0.0,81,0.00,,---,0.00,VWS V14.01,2013-04-08 07:05:00,
2013-04-08 03:10:00,55.2,49.8,29.03,NNW,338,0.0,0.0,82,0.00,,---,0.00,VWS V14.01,2013-04-08 07:10:00,
2013-04-08 03:15:00,54.9,49.5,29.03,NNW,338,0.0,0.0,82,0.00,,---,0.00,VWS V14.01,2013-04-08 07:15:00,
2013-04-08 03:20:00,54.7,50.0,29.00,NNW,338,0.0,0.0,84,0.00,,---,0.00,VWS V14.01,2013-04-08 07:20:00,
2013-04-08 03:25:00,54.3,49.6,29.00,NNW,338,0.0,0.0,84,0.00,,---,0.00,VWS V14.01,2013-04-08 07:25:00,
2013-04-08 03:30:00,53.8,49.1,29.00,NNW,338,0.0,0.0,84,0.00,,---,0.00,VWS V14.01,2013-04-08 07:30:00,
2013-04-08 03:35:00,53.2,49.2,29.00,NNW,338,0.0,0.0,86,0.00,,---,0.00,VWS V14.01,2013-04-08 07:35:00,
2013-04-08 03:40:00,53.1,49.0,29.00,NNW,338,0.0,0.0,86,0.00,,---,0.00,VWS V14.01,2013-04-08 07:40:00,
2013-04-08 03:45:00,52.9,49.1,29.00,NNW,338,0.0,0.0,87,0.00,,---,0.00,VWS V14.01,2013-04-08 07:45:00,
2013-04-08 03:50:00,52.7,49.2,29.00,NNW,338,0.0,0.0,88,0.00,,---,0.00,VWS V14.01,2013-04-08 07:50:00,
2013-04-08 03:55:00,52.3,48.9,29.00,NNW,338,0.0,0.0,88,0.00,,---,0.00,VWS V14.01,2013-04-08 07:55:00,
2013-04-08 04:00:00,52.0,48.8,29.00,NNW,338,0.0,0.0,89,0.00,,---,0.00,VWS V14.01,2013-04-08 08:00:00,
2013-04-08 04:05:00,51.8,49.0,28.97,NNW,338,0.0,0.0,90,0.00,,---,0.00,VWS V14.01,2013-04-08 08:05:00,
2013-04-08 04:10:00,51.6,48.8,28.97,NNW,338,0.0,0.0,90,0.00,,---,0.00,VWS V14.01,2013-04-08 08:10:00,
2013-04-08 04:15:00,51.4,48.9,28.97,NNW,338,0.0,0.0,91,0.00,,---,0.00,VWS V14.01,2013-04-08 08:15:00,
2013-04-08 04:20:00,51.3,49.0,28.97,NNW,338,0.0,0.0,92,0.00,,---,0.00,VWS V14.01,2013-04-08 08:20:00,
2013-04-08 04:25:00,51.1,48.8,28.97,NNW,338,0.0,0.0,92,0.00,,---,0.00,VWS V14.01,2013-04-08 08:25:00,
2013-04-08 04:30:00,51.1,49.1,28.97,NNW,338,0.0,0.0,93,0.00,,---,0.00,VWS V14.01,2013-04-08 08:30:00,
2013-04-08 04:35:00,50.9,49.0,29.00,NNW,338,0.0,0.0,93,0.00,,---,0.00,VWS V14.01,2013-04-08 08:35:00,
2013-04-08 04:40:00,50.9,49.0,29.00,NNW,338,0.0,0.0,93,0.00,,---,0.00,VWS V14.01,2013-04-08 08:40:00,
2013-04-08 04:45:00,50.9,49.2,29.00,NNW,338,0.0,0.0,94,0.00,,---,0.00,VWS V14.01,2013-04-08 08:45:00,
2013-04-08 04:50:00,50.9,49.2,28.97,NNW,338,0.0,0.0,94,0.00,,---,0.00,VWS V14.01,2013-04-08 08:50:00,
2013-04-08 04:55:00,50.9,49.0,28.97,NNW,338,0.0,0.0,93,0.00,,---,0.00,VWS V14.01,2013-04-08 08:55:00,
2013-04-08 05:00:00,50.9,49.2,28.97,NNW,338,0.0,0.0,94,0.00,,---,0.00,VWS V14.01,2013-04-08 09:00:00,
2013-04-08 05:05:00,50.9,49.2,28.97,NNW,338,0.0,0.0,94,0.00,,---,0.00,VWS V14.01,2013-04-08 09:05:00,
2013-04-08 05:10:00,50.9,49.2,28.97,NNW,338,0.0,0.0,94,0.00,,---,0.00,VWS V14.01,2013-04-08 09:10:00,
2013-04-08 05:15:00,50.9,49.2,28.97,NNW,338,0.0,0.0,94,0.00,,---,0.00,VWS V14.01,2013-04-08 09:15:00,
2013-04-08 05:20:00,51.1,49.4,28.97,NNW,338,0.0,0.0,94,0.00,,---,0.00,VWS V14.01,2013-04-08 09:20:00,
2013-04-08 05:25:00,51.1,49.4,28.97,NNW,338,0.0,0.0,94,0.00,,---,0.00,VWS V14.01,2013-04-08 09:25:00,
2013-04-08 05:30:00,50.9,49.5,28.97,NNW,338,0.0,0.0,95,0.00,,---,0.00,VWS V14.01,2013-04-08 09:30:00,
2013-04-08 05:35:00,50.9,49.2,28.97,NNW,338,0.0,0.0,94,0.00,,---,0.00,VWS V14.01,2013-04-08 09:35:00,
2013-04-08 05:40:00,51.1,49.4,28.97,NNW,338,0.0,0.0,94,0.00,,---,0.00,VWS V14.01,2013-04-08 09:40:00,
2013-04-08 05:45:00,51.1,49.4,28.97,NNW,338,0.0,0.0,94,0.00,,---,0.00,VWS V14.01,2013-04-08 09:45:00,
2013-04-08 05:50:00,51.1,49.4,28.97,NNW,338,0.0,0.0,94,0.00,,---,0.00,VWS V14.01,2013-04-08 09:50:00,
2013-04-08 05:55:00,51.1,49.4,28.97,NNW,338,0.0,0.0,94,0.00,,---,0.00,VWS V14.01,2013-04-08 09:55:00,
2013-04-08 06:00:00,51.1,49.1,28.97,NNW,338,0.0,0.0,93,0.00,,---,0.00,VWS V14.01,2013-04-08 10:00:00,
2013-04-08 06:05:00,51.3,49.3,28.97,NNW,338,0.0,0.0,93,0.00,,---,0.00,VWS V14.01,2013-04-08 10:05:00,
2013-04-08 06:10:00,51.3,49.3,28.97,NNW,338,0.0,0.0,93,0.00,,---,0.00,VWS V14.01,2013-04-08 10:10:00,
2013-04-08 06:15:00,51.4,49.5,28.97,NNW,338,0.0,0.0,93,0.00,,---,0.00,VWS V14.01,2013-04-08 10:15:00,
2013-04-08 06:20:00,51.4,49.2,28.94,NNW,338,0.0,0.0,92,0.00,,---,0.00,VWS V14.01,2013-04-08 10:20:00,
2013-04-08 06:25:00,51.4,49.2,28.94,NNW,338,0.0,0.0,92,0.00,,---,0.00,VWS V14.01,2013-04-08 10:25:00,
2013-04-08 06:30:00,51.6,49.1,28.94,NNW,338,0.0,0.0,91,0.00,,---,0.00,VWS V14.01,2013-04-08 10:30:00,
2013-04-08 06:35:00,51.6,49.1,28.97,NNW,338,0.0,0.0,91,0.00,,---,0.00,VWS V14.01,2013-04-08 10:35:00,
2013-04-08 06:40:00,51.6,48.8,28.97,NNW,338,0.0,0.0,90,0.00,,---,0.00,VWS V14.01,2013-04-08 10:40:00,
2013-04-08 06:45:00,51.6,48.5,28.97,NNW,338,0.0,0.0,89,0.00,,---,0.00,VWS V14.01,2013-04-08 10:45:00,
2013-04-08 06:50:00,51.6,47.9,28.97,NW,315,0.0,0.0,87,0.00,,---,0.00,VWS V14.01,2013-04-08 10:50:00,
2013-04-08 06:55:00,52.0,47.6,28.97,NW,315,0.0,0.0,85,0.00,,---,0.00,VWS V14.01,2013-04-08 10:55:00,
2013-04-08 07:00:00,52.0,47.6,28.97,NW,315,0.0,0.0,85,0.00,,---,0.00,VWS V14.01,2013-04-08 11:00:00,
2013-04-08 07:05:00,52.2,47.8,28.97,NW,315,0.0,0.0,85,0.00,,---,0.00,VWS V14.01,2013-04-08 11:05:00,
2013-04-08 07:10:00,52.5,46.9,28.97,NW,315,0.0,0.0,81,0.00,,---,0.00,VWS V14.01,2013-04-08 11:10:00,
2013-04-08 07:15:00,52.5,46.9,28.97,NW,315,0.0,0.0,81,0.00,,---,0.00,VWS V14.01,2013-04-08 11:15:00,
2013-04-08 07:20:00,52.7,46.7,28.97,NW,315,0.0,0.0,80,0.00,,---,0.00,VWS V14.01,2013-04-08 11:20:00,
2013-04-08 07:25:00,52.9,46.5,28.97,NW,315,0.0,0.0,79,0.00,,---,0.00,VWS V14.01,2013-04-08 11:25:00,
2013-04-08 07:30:00,52.9,46.2,28.97,NW,315,0.0,0.0,78,0.00,,---,0.00,VWS V14.01,2013-04-08 11:30:00,
2013-04-08 07:36:00,53.1,46.4,28.97,NW,315,0.0,0.0,78,0.00,,---,0.00,VWS V14.01,2013-04-08 11:36:00,
2013-04-08 07:41:00,53.1,46.4,28.97,NW,315,0.0,0.0,78,0.00,,---,0.00,VWS V14.01,2013-04-08 11:41:00,
2013-04-08 07:46:00,53.1,46.7,28.97,NW,315,0.0,0.0,79,0.00,,---,0.00,VWS V14.01,2013-04-08 11:46:00,
2013-04-08 07:51:00,53.1,46.7,28.97,NW,315,0.0,0.0,79,0.00,,---,0.00,VWS V14.01,2013-04-08 11:51:00,
2013-04-08 07:56:00,53.1,46.4,28.97,NW,315,0.0,0.0,78,0.00,,---,0.00,VWS V14.01,2013-04-08 11:56:00,
2013-04-08 08:01:00,53.2,46.6,28.97,NW,315,0.0,0.0,78,0.00,,---,0.00,VWS V14.01,2013-04-08 12:01:00,
2013-04-08 08:06:00,53.2,45.5,28.97,NW,315,0.0,0.0,75,0.00,,---,0.00,VWS V14.01,2013-04-08 12:06:00,
2013-04-08 08:11:00,53.8,44.2,28.97,East,90,0.0,2.7,70,0.00,,---,0.00,VWS V14.01,2013-04-08 12:11:00,
2013-04-08 08:16:00,54.3,44.0,28.97,East,90,0.0,0.0,68,0.00,,---,0.00,VWS V14.01,2013-04-08 12:16:00,
2013-04-08 08:21:00,54.9,42.9,28.97,East,90,2.7,3.6,64,0.00,,---,0.00,VWS V14.01,2013-04-08 12:21:00,
2013-04-08 08:25:00,55.9,42.3,28.97,ESE,112,0.0,2.7,60,0.00,,---,0.00,VWS V14.01,2013-04-08 12:25:00,
2013-04-08 08:30:00,56.3,41.7,28.97,ESE,112,2.2,3.1,58,0.00,,---,0.00,VWS V14.01,2013-04-08 12:30:00,
2013-04-08 08:35:00,56.5,41.5,28.97,ESE,112,0.0,0.0,57,0.00,,---,0.00,VWS V14.01,2013-04-08 12:35:00,
2013-04-08 08:40:00,56.7,41.6,28.97,ESE,112,0.0,0.0,57,0.00,,---,0.00,VWS V14.01,2013-04-08 12:40:00,
2013-04-08 08:45:00,57.0,41.5,28.97,ESE,112,0.0,0.0,56,0.00,,---,0.00,VWS V14.01,2013-04-08 12:45:00,
2013-04-08 08:50:00,57.2,41.2,28.97,ESE,112,0.0,0.0,55,0.00,,---,0.00,VWS V14.01,2013-04-08 12:50:00,
2013-04-08 08:55:00,57.6,41.1,28.97,SE,135,3.1,3.1,54,0.00,,---,0.00,VWS V14.01,2013-04-08 12:55:00,
2013-04-08 09:00:00,57.9,41.4,28.97,SE,135,0.0,0.0,54,0.00,,---,0.00,VWS V14.01,2013-04-08 13:00:00,
2013-04-08 09:05:00,57.9,41.4,28.97,SE,135,2.2,3.1,54,0.00,,---,0.00,VWS V14.01,2013-04-08 13:05:00,
2013-04-08 09:10:00,58.1,41.6,28.97,SE,135,2.2,2.7,54,0.00,,---,0.00,VWS V14.01,2013-04-08 13:10:00,
2013-04-08 09:15:00,58.3,41.7,28.97,SE,135,0.0,3.1,54,0.00,,---,0.00,VWS V14.01,2013-04-08 13:15:00,
2013-04-08 09:20:00,58.5,41.4,28.97,SSE,158,2.7,3.1,53,0.00,,---,0.00,VWS V14.01,2013-04-08 13:20:00,
2013-04-08 09:26:00,59.0,41.4,28.97,South,180,3.6,4.0,52,0.00,,---,0.00,VWS V14.01,2013-04-08 13:26:00,
2013-04-08 09:31:00,59.2,41.6,28.97,SE,135,2.2,3.1,52,0.00,,---,0.00,VWS V14.01,2013-04-08 13:31:00,
2013-04-08 09:35:00,59.5,41.9,28.97,SE,135,0.0,0.0,52,0.00,,---,0.00,VWS V14.01,2013-04-08 13:35:00,
2013-04-08 09:40:00,60.3,42.6,28.97,SE,135,2.2,3.1,52,0.00,,---,0.00,VWS V14.01,2013-04-08 13:40:00,
2013-04-08 09:46:00,61.2,42.4,28.97,SE,135,2.7,3.1,50,0.00,,---,0.00,VWS V14.01,2013-04-08 13:46:00,
2013-04-08 09:51:00,61.9,42.5,28.97,South,180,4.0,4.0,49,0.00,,---,0.00,VWS V14.01,2013-04-08 13:51:00,
2013-04-08 09:56:00,62.4,42.5,28.97,ESE,112,0.0,2.7,48,0.00,,---,0.00,VWS V14.01,2013-04-08 13:56:00,
2013-04-08 10:01:00,63.7,43.1,28.97,South,180,3.1,4.0,47,0.00,,---,0.00,VWS V14.01,2013-04-08 14:01:00,
2013-04-08 10:06:00,64.4,42.6,28.97,South,180,5.4,6.3,45,0.00,,---,0.00,VWS V14.01,2013-04-08 14:06:00,
2013-04-08 10:11:00,64.8,43.0,28.97,SSW,202,4.0,4.9,45,0.00,,---,0.00,VWS V14.01,2013-04-08 14:11:00,
2013-04-08 10:16:00,65.5,43.6,28.97,South,180,4.0,6.7,45,0.00,,---,0.00,VWS V14.01,2013-04-08 14:16:00,
2013-04-08 10:21:00,66.0,43.5,28.94,South,180,5.4,5.8,44,0.00,,---,0.00,VWS V14.01,2013-04-08 14:21:00,
2013-04-08 10:27:00,66.7,43.5,28.94,WSW,248,2.7,3.6,43,0.00,,---,0.00,VWS V14.01,2013-04-08 14:27:00,
2013-04-08 10:32:00,67.1,43.9,28.94,South,180,8.1,8.1,43,0.00,,---,0.00,VWS V14.01,2013-04-08 14:32:00,
2013-04-08 10:37:00,67.1,43.9,28.97,South,180,4.9,7.6,43,0.00,,---,0.00,VWS V14.01,2013-04-08 14:37:00,
2013-04-08 10:39:00,67.1,43.9,28.97,SW,225,8.7,8.7,43,0.00,,---,0.00,VWS V14.01,2013-04-08 14:39:00,
2013-04-08 10:42:00,67.1,43.9,28.97,SW,225,8.7,8.7,43,0.00,,---,0.00,VWS V14.01,2013-04-08 14:42:00,
2013-04-08 10:53:00,67.6,44.4,28.97,South,180,6.7,8.7,43,0.00,,---,0.00,VWS V14.01,2013-04-08 14:53:00,
2013-04-08 10:58:00,68.0,44.1,28.97,SSW,202,4.9,4.9,42,0.00,,---,0.00,VWS V14.01,2013-04-08 14:58:00,
2013-04-08 11:03:00,68.7,44.7,28.97,West,270,8.1,8.1,42,0.00,,---,0.00,VWS V14.01,2013-04-08 15:03:00,
2013-04-08 11:09:00,68.9,44.9,28.97,West,270,8.7,8.7,42,0.00,,---,0.00,VWS V14.01,2013-04-08 15:09:00,
2013-04-08 11:16:00,69.1,45.0,28.97,SW,225,2.7,9.6,42,0.00,,---,0.00,VWS V14.01,2013-04-08 15:16:00,
2013-04-08 11:21:00,69.4,44.7,28.97,SE,135,10.1,10.1,41,0.00,,---,0.00,VWS V14.01,2013-04-08 15:21:00,
2013-04-08 11:26:00,69.6,44.9,28.97,South,180,4.0,11.0,41,0.00,,---,0.00,VWS V14.01,2013-04-08 15:26:00,
2013-04-08 11:31:00,70.2,45.4,28.97,South,180,7.2,9.6,41,0.00,,---,0.00,VWS V14.01,2013-04-08 15:31:00,
2013-04-08 11:36:00,70.0,44.6,28.97,South,180,7.6,9.6,40,0.00,,---,0.00,VWS V14.01,2013-04-08 15:36:00,
2013-04-08 11:42:00,70.2,44.7,28.97,SSE,158,8.1,8.1,40,0.00,,---,0.00,VWS V14.01,2013-04-08 15:42:00,
2013-04-08 11:51:00,70.2,44.7,28.97,SSE,158,5.8,8.1,40,0.00,,---,0.00,VWS V14.01,2013-04-08 15:51:00,
2013-04-08 11:56:00,71.1,44.9,28.97,South,180,12.8,12.8,39,0.00,,---,0.00,VWS V14.01,2013-04-08 15:56:00,
2013-04-08 12:01:00,71.1,44.9,28.97,South,180,5.8,6.3,39,0.00,,---,0.00,VWS V14.01,2013-04-08 16:01:00,
2013-04-08 12:06:00,71.4,45.2,28.97,South,180,7.2,8.3,39,0.00,,---,0.00,VWS V14.01,2013-04-08 16:06:00,
2013-04-08 12:12:00,71.4,45.2,28.97,WSW,248,5.8,6.7,39,0.00,,---,0.00,VWS V14.01,2013-04-08 16:12:00,
2013-04-08 12:17:00,71.2,45.0,28.97,NE,45,6.7,10.5,39,0.00,,---,0.00,VWS V14.01,2013-04-08 16:17:00,
2013-04-08 12:22:00,71.4,45.2,28.97,South,180,7.2,8.1,39,0.00,,---,0.00,VWS V14.01,2013-04-08 16:22:00,
2013-04-08 12:27:00,71.6,44.7,28.97,South,180,8.3,8.3,38,0.00,,---,0.00,VWS V14.01,2013-04-08 16:27:00,
2013-04-08 12:32:00,71.4,44.5,28.97,South,180,5.4,7.6,38,0.00,,---,0.00,VWS V14.01,2013-04-08 16:32:00,
2013-04-08 12:37:00,71.4,44.5,29.00,South,180,5.4,5.4,38,0.00,,---,0.00,VWS V14.01,2013-04-08 16:37:00,
2013-04-08 12:42:00,71.4,44.5,29.00,South,180,8.1,8.1,38,0.00,,---,0.00,VWS V14.01,2013-04-08 16:42:00,
2013-04-08 12:47:00,72.1,45.2,29.00,South,180,3.6,8.7,38,0.00,,---,0.00,VWS V14.01,2013-04-08 16:47:00,
2013-04-08 12:52:00,72.7,44.9,29.00,SSW,202,5.4,5.4,37,0.00,,---,0.00,VWS V14.01,2013-04-08 16:52:00,
2013-04-08 12:57:00,72.3,43.9,29.00,South,180,6.3,6.3,36,0.00,,---,0.00,VWS V14.01,2013-04-08 16:57:00,
2013-04-08 13:02:00,72.5,44.8,29.00,NW,315,8.1,8.1,37,0.00,,---,0.00,VWS V14.01,2013-04-08 17:02:00,
2013-04-08 13:07:00,72.0,44.3,29.00,SW,225,8.1,10.1,37,0.00,,---,0.00,VWS V14.01,2013-04-08 17:07:00,
2013-04-08 13:12:00,72.0,44.3,29.00,SW,225,3.6,6.7,37,0.00,,---,0.00,VWS V14.01,2013-04-08 17:12:00,
2013-04-08 13:17:00,72.1,44.5,29.00,South,180,4.0,4.0,37,0.00,,---,0.00,VWS V14.01,2013-04-08 17:17:00,
2013-04-08 13:22:00,71.8,44.1,29.00,South,180,7.6,10.1,37,0.00,,---,0.00,VWS V14.01,2013-04-08 17:22:00,
2013-04-08 13:27:00,71.4,44.5,29.00,South,180,5.4,5.4,38,0.00,,---,0.00,VWS V14.01,2013-04-08 17:27:00,
2013-04-08 13:32:00,71.2,44.4,29.00,South,180,4.0,4.0,38,0.00,,---,0.00,VWS V14.01,2013-04-08 17:32:00,
2013-04-08 13:37:00,71.6,44.7,29.00,South,180,4.9,6.7,38,0.00,,---,0.00,VWS V14.01,2013-04-08 17:37:00,
2013-04-08 13:42:00,71.8,44.8,29.00,South,180,10.5,10.5,38,0.00,,---,0.00,VWS V14.01,2013-04-08 17:42:00,
2013-04-08 13:47:00,72.0,44.3,29.00,South,180,6.3,6.3,37,0.00,,---,0.00,VWS V14.01,2013-04-08 17:47:00,
2013-04-08 13:52:00,72.0,45.0,29.00,SSW,202,8.1,8.3,38,0.00,,---,0.00,VWS V14.01,2013-04-08 17:52:00,
2013-04-08 13:57:00,71.6,44.7,29.00,SSW,202,8.1,8.3,38,0.00,,---,0.00,VWS V14.01,2013-04-08 17:57:00,
2013-04-08 14:02:00,71.4,44.5,29.00,West,270,2.2,3.6,38,0.00,,---,0.00,VWS V14.01,2013-04-08 18:02:00,
2013-04-08 14:07:00,71.2,45.0,29.00,South,180,3.1,7.6,39,0.00,,---,0.00,VWS V14.01,2013-04-08 18:07:00,
2013-04-08 14:12:00,71.4,45.2,29.00,SW,225,4.0,4.0,39,0.00,,---,0.00,VWS V14.01,2013-04-08 18:12:00,
2013-04-08 14:17:00,71.4,45.2,29.00,SW,225,4.0,6.3,39,0.00,,---,0.00,VWS V14.01,2013-04-08 18:17:00,
2013-04-08 14:22:00,71.6,45.4,29.00,South,180,5.8,5.8,39,0.00,,---,0.00,VWS V14.01,2013-04-08 18:22:00,
2013-04-08 14:27:00,71.6,45.4,29.00,South,180,5.4,5.4,39,0.00,,---,0.00,VWS V14.01,2013-04-08 18:27:00,
2013-04-08 14:32:00,71.4,45.2,29.00,SW,225,4.5,4.5,39,0.00,,---,0.00,VWS V14.01,2013-04-08 18:32:00,
2013-04-08 14:37:00,71.4,45.2,29.00,South,180,4.0,5.4,39,0.00,,---,0.00,VWS V14.01,2013-04-08 18:37:00,
2013-04-08 14:42:00,71.4,45.2,29.00,South,180,3.6,7.2,39,0.00,,---,0.00,VWS V14.01,2013-04-08 18:42:00,
2013-04-08 14:47:00,71.4,45.2,29.00,South,180,5.4,5.4,39,0.00,,---,0.00,VWS V14.01,2013-04-08 18:47:00,
2013-04-08 14:52:00,71.6,45.4,29.00,SSE,158,5.4,5.4,39,0.00,,---,0.00,VWS V14.01,2013-04-08 18:52:00,
2013-04-08 14:57:00,71.4,45.2,29.00,WNW,292,4.9,4.9,39,0.00,,---,0.00,VWS V14.01,2013-04-08 18:57:00,
2013-04-08 15:02:00,71.6,45.4,29.00,South,180,4.9,4.9,39,0.00,,---,0.00,VWS V14.01,2013-04-08 19:02:00,
2013-04-08 15:07:00,71.8,45.5,29.00,South,180,4.0,5.8,39,0.00,,---,0.00,VWS V14.01,2013-04-08 19:07:00,
2013-04-08 15:12:00,72.0,45.7,29.00,SSW,202,5.4,6.7,39,0.00,,---,0.00,VWS V14.01,2013-04-08 19:12:00,
2013-04-08 15:17:00,72.1,45.8,29.00,SW,225,4.0,4.5,39,0.00,,---,0.00,VWS V14.01,2013-04-08 19:17:00,
2013-04-08 15:22:00,72.1,45.8,29.00,South,180,0.0,3.6,39,0.00,,---,0.00,VWS V14.01,2013-04-08 19:22:00,
2013-04-08 15:27:00,72.1,45.8,29.00,SSW,202,8.3,8.3,39,0.00,,---,0.00,VWS V14.01,2013-04-08 19:27:00,
2013-04-08 15:32:00,71.8,45.5,29.00,South,180,9.2,10.5,39,0.00,,---,0.00,VWS V14.01,2013-04-08 19:32:00,
2013-04-08 15:37:00,71.8,45.5,29.00,SW,225,2.7,3.1,39,0.00,,---,0.00,VWS V14.01,2013-04-08 19:37:00,
2013-04-08 15:42:00,71.8,45.5,29.00,South,180,3.6,6.3,39,0.00,,---,0.00,VWS V14.01,2013-04-08 19:42:00,
2013-04-08 15:47:00,72.0,46.3,29.00,SW,225,3.1,3.1,40,0.00,,---,0.00,VWS V14.01,2013-04-08 19:47:00,
2013-04-08 15:52:00,71.8,46.2,29.00,SSW,202,7.6,7.6,40,0.00,,---,0.00,VWS V14.01,2013-04-08 19:52:00,
2013-04-08 15:57:00,71.6,46.7,29.00,SSE,158,5.8,5.8,41,0.00,,---,0.00,VWS V14.01,2013-04-08 19:57:00,
2013-04-08 16:02:00,71.4,47.2,29.00,South,180,5.8,5.8,42,0.00,,---,0.00,VWS V14.01,2013-04-08 20:02:00,
2013-04-08 16:07:00,71.2,47.0,29.03,South,180,4.9,4.9,42,0.00,,---,0.00,VWS V14.01,2013-04-08 20:07:00,
2013-04-08 16:12:00,71.2,47.0,29.03,West,270,3.6,4.9,42,0.00,,---,0.00,VWS V14.01,2013-04-08 20:12:00,
2013-04-08 16:17:00,71.2,47.0,29.03,West,270,3.6,8.7,42,0.00,,---,0.00,VWS V14.01,2013-04-08 20:17:00,
2013-04-08 16:22:00,71.1,47.5,29.00,South,180,11.0,11.0,43,0.00,,---,0.00,VWS V14.01,2013-04-08 20:22:00,
2013-04-08 16:27:00,70.9,47.9,29.00,South,180,5.4,8.3,44,0.00,,---,0.00,VWS V14.01,2013-04-08 20:27:00,
2013-04-08 16:32:00,70.9,47.9,29.00,SW,225,6.3,6.3,44,0.00,,---,0.00,VWS V14.01,2013-04-08 20:32:00,
2013-04-08 16:37:00,70.7,47.7,29.00,SSW,202,4.0,4.0,44,0.00,,---,0.00,VWS V14.01,2013-04-08 20:37:00,
2013-04-08 16:42:00,70.7,47.7,29.00,South,180,6.3,6.3,44,0.00,,---,0.00,VWS V14.01,2013-04-08 20:42:00,
2013-04-08 16:47:00,70.5,47.6,29.00,South,180,5.4,9.6,44,0.00,,---,0.00,VWS V14.01,2013-04-08 20:47:00,
2013-04-08 16:52:00,70.7,47.7,29.00,South,180,5.4,5.8,44,0.00,,---,0.00,VWS V14.01,2013-04-08 20:52:00,
2013-04-08 16:57:00,70.7,48.3,29.00,South,180,5.8,5.8,45,0.00,,---,0.00,VWS V14.01,2013-04-08 20:57:00,
2013-04-08 17:02:00,70.5,48.2,29.00,South,180,6.7,7.2,45,0.00,,---,0.00,VWS V14.01,2013-04-08 21:02:00,
2013-04-08 17:07:00,70.5,48.2,29.00,South,180,6.3,6.3,45,0.00,,---,0.00,VWS V14.01,2013-04-08 21:07:00,
2013-04-08 17:12:00,70.5,48.2,29.00,WSW,248,2.7,3.1,45,0.00,,---,0.00,VWS V14.01,2013-04-08 21:12:00,
2013-04-08 17:17:00,70.3,48.6,29.00,South,180,8.7,8.7,46,0.00,,---,0.00,VWS V14.01,2013-04-08 21:17:00,
2013-04-08 17:22:00,70.3,48.6,29.00,South,180,5.8,5.8,46,0.00,,---,0.00,VWS V14.01,2013-04-08 21:22:00,
2013-04-08 17:27:00,70.0,48.3,29.00,SSW,202,5.4,10.1,46,0.00,,---,0.00,VWS V14.01,2013-04-08 21:27:00,
2013-04-08 17:32:00,69.6,48.5,29.00,South,180,6.3,6.3,47,0.00,,---,0.00,VWS V14.01,2013-04-08 21:32:00,
2013-04-08 17:37:00,69.4,48.9,29.00,South,180,5.4,5.4,48,0.00,,---,0.00,VWS V14.01,2013-04-08 21:37:00,
2013-04-08 17:42:00,69.3,49.3,29.00,South,180,5.4,5.4,49,0.00,,---,0.00,VWS V14.01,2013-04-08 21:42:00,
2013-04-08 17:47:00,69.3,49.3,29.00,South,180,2.7,5.4,49,0.00,,---,0.00,VWS V14.01,2013-04-08 21:47:00,
2013-04-08 17:52:00,69.3,49.3,29.00,SE,135,2.7,2.7,49,0.00,,---,0.00,VWS V14.01,2013-04-08 21:52:00,
2013-04-08 17:57:00,69.3,49.3,29.00,South,180,0.0,3.6,49,0.00,,---,0.00,VWS V14.01,2013-04-08 21:57:00,
2013-04-08 18:02:00,69.3,49.8,29.00,West,270,4.9,4.9,50,0.00,,---,0.00,VWS V14.01,2013-04-08 22:02:00,
2013-04-08 18:07:00,69.4,49.5,29.00,South,180,2.2,2.2,49,0.00,,---,0.00,VWS V14.01,2013-04-08 22:07:00,
2013-04-08 18:12:00,69.6,49.6,29.00,South,180,2.2,2.7,49,0.00,,---,0.00,VWS V14.01,2013-04-08 22:12:00,
2013-04-08 18:17:00,69.8,49.2,29.00,South,180,2.7,5.4,48,0.00,,---,0.00,VWS V14.01,2013-04-08 22:17:00,
2013-04-08 18:22:00,70.0,49.4,29.00,SW,225,5.4,5.4,48,0.00,,---,0.00,VWS V14.01,2013-04-08 22:22:00,
2013-04-08 18:27:00,70.2,49.0,29.00,South,180,3.1,3.6,47,0.00,,---,0.00,VWS V14.01,2013-04-08 22:27:00,
2013-04-08 18:32:00,70.2,49.6,29.00,South,180,4.5,4.5,48,0.00,,---,0.00,VWS V14.01,2013-04-08 22:32:00,
2013-04-08 18:37:00,70.2,49.0,29.00,SW,225,0.0,2.7,47,0.00,,---,0.00,VWS V14.01,2013-04-08 22:37:00,
2013-04-08 18:42:00,70.2,49.0,29.00,South,180,5.4,5.8,47,0.00,,---,0.00,VWS V14.01,2013-04-08 22:42:00,
2013-04-08 18:47:00,70.2,49.0,29.00,WSW,248,0.0,4.0,47,0.00,,---,0.00,VWS V14.01,2013-04-08 22:47:00,
2013-04-08 18:52:00,70.3,48.6,29.00,SW,225,5.4,5.4,46,0.00,,---,0.00,VWS V14.01,2013-04-08 22:52:00,
2013-04-08 18:57:00,70.5,48.2,29.00,South,180,4.9,4.9,45,0.00,,---,0.00,VWS V14.01,2013-04-08 22:57:00,
2013-04-08 19:02:00,70.7,48.3,29.00,SW,225,3.1,4.0,45,0.00,,---,0.00,VWS V14.01,2013-04-08 23:02:00,
2013-04-08 19:07:00,70.7,48.3,29.03,South,180,4.0,5.4,45,0.00,,---,0.00,VWS V14.01,2013-04-08 23:07:00,
2013-04-08 19:12:00,70.7,47.7,29.03,SSE,158,3.6,4.0,44,0.00,,---,0.00,VWS V14.01,2013-04-08 23:12:00,
2013-04-08 19:17:00,70.7,47.7,29.03,SSW,202,2.2,3.1,44,0.00,,---,0.00,VWS V14.01,2013-04-08 23:17:00,
2013-04-08 19:22:00,70.5,47.6,29.03,SSW,202,3.1,3.1,44,0.00,,---,0.00,VWS V14.01,2013-04-08 23:22:00,
2013-04-08 19:27:00,70.3,47.4,29.03,South,180,2.7,2.7,44,0.00,,---,0.00,VWS V14.01,2013-04-08 23:27:00,
2013-04-08 19:32:00,70.3,47.4,29.03,SSW,202,2.2,2.2,44,0.00,,---,0.00,VWS V14.01,2013-04-08 23:32:00,
2013-04-08 19:37:00,70.2,47.2,29.03,South,180,5.4,5.4,44,0.00,,---,0.00,VWS V14.01,2013-04-08 23:37:00,
2013-04-08 19:42:00,70.0,47.1,29.03,South,180,3.1,3.6,44,0.00,,---,0.00,VWS V14.01,2013-04-08 23:42:00,
2013-04-08 19:47:00,70.0,47.1,29.03,South,180,2.2,4.0,44,0.00,,---,0.00,VWS V14.01,2013-04-08 23:47:00,
2013-04-08 19:52:00,69.8,46.9,29.03,South,180,2.2,2.7,44,0.00,,---,0.00,VWS V14.01,2013-04-08 23:52:00,
2013-04-08 19:57:00,69.4,47.2,29.03,South,180,0.0,0.0,45,0.00,,---,0.00,VWS V14.01,2013-04-08 23:57:00,
2013-04-08 20:02:00,69.4,47.2,29.03,South,180,0.0,0.0,45,0.00,,---,0.00,VWS V14.01,2013-04-09 00:02:00,
2013-04-08 20:07:00,69.1,46.9,29.03,South,180,0.0,2.2,45,0.00,,---,0.00,VWS V14.01,2013-04-09 00:07:00,
2013-04-08 20:12:00,68.9,46.7,29.03,South,180,0.0,0.0,45,0.00,,---,0.00,VWS V14.01,2013-04-09 00:12:00,
2013-04-08 20:17:00,68.5,47.0,29.03,South,180,0.0,0.0,46,0.00,,---,0.00,VWS V14.01,2013-04-09 00:17:00,
2013-04-08 20:22:00,68.0,47.0,29.03,South,180,0.0,0.0,47,0.00,,---,0.00,VWS V14.01,2013-04-09 00:22:00,
2013-04-08 20:27:00,67.8,46.9,29.03,South,180,0.0,0.0,47,0.00,,---,0.00,VWS V14.01,2013-04-09 00:27:00,
2013-04-08 20:32:00,67.5,47.1,29.03,South,180,0.0,0.0,48,0.00,,---,0.00,VWS V14.01,2013-04-09 00:32:00,
2013-04-08 20:37:00,66.7,47.0,29.03,South,180,0.0,0.0,49,0.00,,---,0.00,VWS V14.01,2013-04-09 00:37:00,
2013-04-08 20:42:00,66.0,47.4,29.03,South,180,0.0,0.0,51,0.00,,---,0.00,VWS V14.01,2013-04-09 00:42:00,
2013-04-08 20:47:00,65.3,47.2,29.03,South,180,0.0,0.0,52,0.00,,---,0.00,VWS V14.01,2013-04-09 00:47:00,
2013-04-08 20:52:00,64.4,47.4,29.06,South,180,0.0,0.0,54,0.00,,---,0.00,VWS V14.01,2013-04-09 00:52:00,
2013-04-08 20:57:00,63.5,48.0,29.06,South,180,0.0,0.0,57,0.00,,---,0.00,VWS V14.01,2013-04-09 00:57:00,
2013-04-08 21:02:00,63.1,48.6,29.06,South,180,0.0,0.0,59,0.00,,---,0.00,VWS V14.01,2013-04-09 01:02:00,
2013-04-08 21:07:00,62.4,48.8,29.03,South,180,0.0,0.0,61,0.00,,---,0.00,VWS V14.01,2013-04-09 01:07:00,
2013-04-08 21:12:00,61.5,48.8,29.03,South,180,0.0,0.0,63,0.00,,---,0.00,VWS V14.01,2013-04-09 01:12:00,
2013-04-08 21:17:00,61.2,48.9,29.03,South,180,0.0,0.0,64,0.00,,---,0.00,VWS V14.01,2013-04-09 01:17:00,
2013-04-08 21:22:00,60.6,48.8,29.03,South,180,0.0,0.0,65,0.00,,---,0.00,VWS V14.01,2013-04-09 01:22:00,
2013-04-08 21:27:00,60.1,48.7,29.03,South,180,0.0,0.0,66,0.00,,---,0.00,VWS V14.01,2013-04-09 01:27:00,
2013-04-08 21:32:00,59.9,48.9,29.03,South,180,0.0,0.0,67,0.00,,---,0.00,VWS V14.01,2013-04-09 01:32:00,
2013-04-08 21:37:00,59.4,48.8,29.06,South,180,0.0,0.0,68,0.00,,---,0.00,VWS V14.01,2013-04-09 01:37:00,
2013-04-08 21:42:00,58.8,48.7,29.06,South,180,0.0,0.0,69,0.00,,---,0.00,VWS V14.01,2013-04-09 01:42:00,
2013-04-08 21:47:00,58.5,48.3,29.06,South,180,0.0,0.0,69,0.00,,---,0.00,VWS V14.01,2013-04-09 01:47:00,
2013-04-08 21:52:00,58.1,48.4,29.06,South,180,0.0,0.0,70,0.00,,---,0.00,VWS V14.01,2013-04-09 01:52:00,
2013-04-08 21:57:00,57.9,48.6,29.06,South,180,0.0,0.0,71,0.00,,---,0.00,VWS V14.01,2013-04-09 01:57:00,
2013-04-08 22:02:00,57.6,48.2,29.06,South,180,0.0,0.0,71,0.00,,---,0.00,VWS V14.01,2013-04-09 02:02:00,
2013-04-08 22:07:00,57.4,48.4,29.03,South,180,0.0,0.0,72,0.00,,---,0.00,VWS V14.01,2013-04-09 02:07:00,
2013-04-08 22:12:00,56.8,48.3,29.03,South,180,0.0,0.0,73,0.00,,---,0.00,VWS V14.01,2013-04-09 02:12:00,
2013-04-08 22:17:00,56.7,48.8,29.03,South,180,0.0,0.0,75,0.00,,---,0.00,VWS V14.01,2013-04-09 02:17:00,
2013-04-08 22:22:00,56.5,49.0,29.06,South,180,0.0,0.0,76,0.00,,---,0.00,VWS V14.01,2013-04-09 02:22:00,
2013-04-08 22:27:00,56.1,48.3,29.06,South,180,0.0,0.0,75,0.00,,---,0.00,VWS V14.01,2013-04-09 02:27:00,
2013-04-08 22:33:00,55.8,48.7,29.06,South,180,0.0,0.0,77,0.00,,---,0.00,VWS V14.01,2013-04-09 02:33:00,
2013-04-08 22:37:00,55.6,48.8,29.03,South,180,0.0,0.0,78,0.00,,---,0.00,VWS V14.01,2013-04-09 02:37:00,
2013-04-08 22:42:00,55.0,49.3,29.03,South,180,0.0,0.0,81,0.00,,---,0.00,VWS V14.01,2013-04-09 02:42:00,
2013-04-08 22:48:00,54.9,49.5,29.03,South,180,0.0,0.0,82,0.00,,---,0.00,VWS V14.01,2013-04-09 02:48:00,
2013-04-08 22:53:00,54.7,49.0,29.06,South,180,0.0,0.0,81,0.00,,---,0.00,VWS V14.01,2013-04-09 02:53:00,
2013-04-08 22:58:00,54.5,48.8,29.06,South,180,0.0,0.0,81,0.00,,---,0.00,VWS V14.01,2013-04-09 02:58:00,
2013-04-08 23:03:00,54.1,48.5,29.06,South,180,0.0,0.0,81,0.00,,---,0.00,VWS V14.01,2013-04-09 03:03:00,
2013-04-08 23:08:00,54.0,48.6,29.03,South,180,0.0,0.0,82,0.00,,---,0.00,VWS V14.01,2013-04-09 03:08:00,
2013-04-08 23:12:00,53.8,48.8,29.03,South,180,0.0,0.0,83,0.00,,---,0.00,VWS V14.01,2013-04-09 03:12:00,
2013-04-08 23:17:00,53.8,48.8,29.03,South,180,0.0,0.0,83,0.00,,---,0.00,VWS V14.01,2013-04-09 03:17:00,
2013-04-08 23:22:00,53.8,49.1,29.03,South,180,0.0,0.0,84,0.00,,---,0.00,VWS V14.01,2013-04-09 03:22:00,
2013-04-08 23:27:00,53.8,49.1,29.03,South,180,0.0,0.0,84,0.00,,---,0.00,VWS V14.01,2013-04-09 03:27:00,
2013-04-08 23:32:00,53.4,48.7,29.03,South,180,0.0,0.0,84,0.00,,---,0.00,VWS V14.01,2013-04-09 03:32:00,
2013-04-08 23:38:00,53.2,48.8,29.03,South,180,0.0,0.0,85,0.00,,---,0.00,VWS V14.01,2013-04-09 03:38:00,
2013-04-08 23:42:00,53.1,48.7,29.03,South,180,0.0,0.0,85,0.00,,---,0.00,VWS V14.01,2013-04-09 03:42:00,
2013-04-08 23:47:00,53.1,48.7,29.03,South,180,0.0,0.0,85,0.00,,---,0.00,VWS V14.01,2013-04-09 03:47:00,
2013-04-08 23:52:00,53.1,48.7,29.06,South,180,0.0,0.0,85,0.00,,---,0.00,VWS V14.01,2013-04-09 03:52:00,
2013-04-08 23:58:00,53.1,48.7,29.06,South,180,0.0,0.0,85,0.00,,---,0.00,VWS V14.01,2013-04-09 03:58:00,